Location: Rotheul
(50.2849°N, 11.2349°E)
Time: 08:27:51
(UTC+02:00)

ISS - Pass Details

Date: 18 July 2018
Orbit: 402 x 408 km, 51.6° (Epoch: 16 July)

Event Time Altitude Azimuth Distance (km) Brightness Sun altitude
Rises 03:57:54 0° 285° (WNW) 2,331 -0.2 -10.7°
Reaches altitude 10° 03:59:59 10° 284° (WNW) 1,470 -1.2 -10.5°
Maximum altitude 04:03:16 77° 200° (SSW) 423 -3.9 -10.2°
Drops below altitude 10° 04:06:34 10° 113° (ESE) 1,467 -0.8 -9.9°
Sets 04:08:38 0° 112° (ESE) 2,326 0.3 -9.7°
